Regional Weather Roundup
Issued by NWS

Home | Current Version | Previous Version | Text Only | Print | Product List | Glossary Off
Versions: 1 2 3 4 5 6 7 8 9 10 11 12 13 14 15 16 17 18 19 20 21 22 23 24 25 26 27 28 29 30 31 32 33 34 35 36 37 38 39 40 41 42 43 44 45 46 47 48 49 50

000
ASUS43 KDMX 250708
RWRIA

WEATHER ROUNDUP FOR IOWA
NATIONAL WEATHER SERVICE DES MOINES IA
200 AM CDT MON JUL 25 2016

NOTE: "FAIR" INDICATES FEW OR NO CLOUDS BELOW 12,000 FEET WITH NO
SIGNIFICANT WEATHER AND/OR OBSTRUCTIONS TO VISIBILITY.

* - THESE STATIONS ARE NOT NWS STATIONS...THUS NOT UNDER NWS
QUALITY CONTROL.  THEY ALSO DO NOT REPORT WEATHER SUCH
AS PRECIPITATION OR FOG.

IAZ001>003-012>014-020>022-031>034-043>046-250800-
   NORTHWEST IOWA

CITY           SKY/WX    TMP DP  RH WIND       PRES   REMARKS
CARROLL *      CLEAR     64  63  94 NW6       30.07S
CHEROKEE *     CLEAR     65  63  93 CALM      30.08S
LE MARS *      CLEAR     64  63  94 CALM      30.08F
SHELDON *      CLEAR     63  63 100 W5        30.07F
SIOUX CITY     CLEAR     68  63  84 NW6       30.07S
SPENCER        CLEAR     63  60  90 CALM      30.07S
STORM LAKE *   CLEAR     66  63  88 NW9       30.08F
$$

IAZ055>058-069>071-079>083-090>094-250800-
   SOUTHWEST IOWA

CITY           SKY/WX    TMP DP  RH WIND       PRES   REMARKS
ATLANTIC *     PTCLDY    68  66  94 N3        30.07R
CLARINDA *       N/A     68  68 100 MISG      30.06F
COUNCIL BLFS *   N/A     68  64  88 VRB6      30.06S
CRESTON *      CLEAR     70  64  83 NE6       30.07S
HARLAN  *      MOCLDY    66  64  94 CALM      30.10S
LAMONI         CLOUDY    72  68  87 NE5       30.04R
RED OAK *      CLEAR     66  66 100 CALM      30.05F
SHENANDOAH *   CLEAR     66  66 100 CALM      30.05F FOG
$$

IAZ047>049-059>061-072>074-084-250800-
   CENTRAL IOWA

CITY           SKY/WX    TMP DP  RH WIND       PRES   REMARKS
AMES           PTCLDY    68  67  96 N5        30.05S
ANKENY *         N/A    N/A N/A N/A MISG        N/A
BOONE *        PTCLDY    68  64  88 N6        30.05S
CHARITON *       N/A    N/A N/A N/A MISG        N/A
DES MOINES     PTCLDY    73  64  73 N8        30.04S
GRINNELL*      CLEAR     66  63  88 N5        30.05S
KNOXVILLE *    CLEAR     72  63  73 N10       30.03R
MARSHALLTOWN   PTCLDY    65  64  97 NW3       30.05R
NEWTON *       PTCLDY    70  64  83 N9        30.04S
PELLA *        CLEAR     67  63  86 CALM      30.06R
PERRY *          N/A     65  65  99 CALM      30.05F
$$

IAZ004>006-015-016-023>025-035-036-250800-
   NORTH CENTRAL IOWA

CITY           SKY/WX    TMP DP  RH WIND       PRES   REMARKS
ALGONA *       CLEAR     66  64  94 NW6       30.06S
ESTHERVILLE    CLEAR     63  62  97 W8        30.07R
FORT DODGE *   CLEAR     66  63  88 CALM      30.07S
MASON CITY     CLEAR     65  63  93 W6        30.06R
FOREST CITY *    N/A     63  63 100 CALM      30.05R
IOWA FALLS *     N/A     65  64  93 W3        30.06S
$$

IAZ007>011-017>019-026>030-037>042-050>054-066-250800-
   NORTHEAST IOWA

CITY           SKY/WX    TMP DP  RH WIND       PRES   REMARKS
CEDAR RAPIDS   CLOUDY    69  68  96 NW7       30.02R
CHARLES CITY * CLEAR     66  66 100 W5        30.04S
CLINTON *      CLOUDY    71  68  90 N6        30.00R
DECORAH *      CLEAR     66  66 100 CALM      30.03R
DUBUQUE        CLOUDY    70  65  84 NW7       30.02S
MONTICELLO *   CLOUDY    68  66  94 NW5       30.01F
OELWEIN *      CLOUDY    68  64  88 NW5       30.05R
WATERLOO       MOCLDY    66  63  90 CALM      30.04R
$$

IAZ064-065-067-068-078-250800-
   EAST CENTRAL IOWA

CITY           SKY/WX    TMP DP  RH WIND       PRES   REMARKS
DAVENPORT      CLOUDY    70  66  87 N3        30.00R
IOWA CITY      CLOUDY    74  66  76 N10       30.03R
MT. PLEASANT *   N/A     74  70  86 N6        30.01F
MUSCATINE *    CLOUDY    73  66  78 NW9       30.00R
QUAD CITIES    CLOUDY    76  66  71 N6        29.99R
$$

IAZ062-063-075>077-085>089-095>099-250800-
   SOUTHEAST IOWA

CITY           SKY/WX    TMP DP  RH WIND       PRES   REMARKS
BURLINGTON     CLOUDY    73  70  90 N9        30.01R
FAIRFIELD *    CLOUDY    72  66  83 N6        30.02R
KEOKUK *       LGT RAIN  73  70  88 N8G15     29.98F
CENTERVILLE *    N/A     73  66  78 NE3       30.06R
OTTUMWA        CLOUDY    71  65  81 N8        30.02R
WASHINGTON *   CLOUDY    73  66  78 N12       30.02S
$$

ABBREVIATIONS USED IN REMARKS
   TC - TEMPERATURES IN CELSIUS
  WCI - WIND CHILL INDEX
   HX - HEAT INDEX
  VSB - VISIBILITY
$$





USA.gov is the U.S. government's official web portal to all federal, state and local government web resources and services.